Back to catalog

STARLINK-36062

AliveCommunicationsVLEO
NORAD 66794·PAYLOAD·🇺🇸 United States

Launched Dec 1, 2025 from Cape Canaveral Space Force Station

Loading…

Next Passes (next 24 hours)

TLE

FreshSource: CelesTrak SupGP

Epoch: Sep 14, 2026, 21:37 UTC

1 66794C 25278D   26257.90118056 -.00035270  00000+0 -12775-2 0  2577
2 66794  43.0017 126.0175 0001383 269.9406 107.0744 15.27594750    11

Track STARLINK-36062 in real time with AllMySat

Download on the App Store